When you browse on this site, cookies collect data to enhance your experience and personalize the content and advertising you see.
Visit our Privacy Policy to learn more. By continuing to use the site, you agree to this use of cookies and data.
  • In Hungary
  • List of Countries
  • For 7 days
  • Water Temperature
  • Satellite Maps
  • Weather Map
  • News
  • Weather Widgets
  • user-avatar
    Login

    Hourly Weather Mezhevaya

    Today, 21 April, Sunday

    Time Temperature Precipitation Wind Pressure Humidity
    00:00 +5°C° 0 mm 2 mps 752 mmHg 53%
    01:00 +6°C° 0 mm 1 mps 752 mmHg 55%
    02:00 +6°C° 0 mm 1 mps 751 mmHg 57%
    03:00 +5°C° 0 mm 1 mps 751 mmHg 58%
    04:00 +5°C° 0 mm 1 mps 752 mmHg 58%
    05:00 +4°C° 0 mm 2 mps 752 mmHg 59%
    06:00 +6°C° 0 mm 2 mps 752 mmHg 53%
    07:00 +8°C° 0 mm 3 mps 752 mmHg 47%
    08:00 +10°C° 0 mm 4 mps 752 mmHg 40%
    09:00 +11°C° 0 mm 4 mps 752 mmHg 37%
    10:00 +12°C° 0 mm 4 mps 752 mmHg 33%
    11:00 +13°C° 0 mm 5 mps 752 mmHg 30%
    12:00 +13°C° 0 mm 5 mps 752 mmHg 30%
    13:00 +14°C° 0 mm 4 mps 752 mmHg 30%
    14:00 +14°C° 0 mm 4 mps 751 mmHg 31%
    15:00 +13°C° 0 mm 4 mps 751 mmHg 33%
    16:00 +13°C° 0 mm 4 mps 751 mmHg 35%
    17:00 +13°C° 0 mm 4 mps 751 mmHg 38%
    18:00 +12°C° 0 mm 3 mps 751 mmHg 40%
    19:00 +11°C° 0 mm 3 mps 752 mmHg 43%
    20:00 +10°C° 0 mm 3 mps 752 mmHg 45%
    21:00 +9°C° 0 mm 3 mps 752 mmHg 47%
    22:00 +9°C° 0 mm 3 mps 752 mmHg 49%
    23:00 +8°C° 0 mm 3 mps 752 mmHg 51%

    Tomorrow, 22 April, Monday

    Time Temperature Precipitation Wind Pressure Humidity
    00:00 +8°C° 0 mm 2 mps 752 mmHg 52%
    01:00 +7°C° 0 mm 2 mps 752 mmHg 54%
    02:00 +6°C° 0 mm 2 mps 752 mmHg 55%
    03:00 +5°C° 0 mm 3 mps 752 mmHg 56%
    04:00 +4°C° 0 mm 3 mps 753 mmHg 58%
    05:00 +4°C° 0 mm 3 mps 753 mmHg 59%
    06:00 +6°C° 0 mm 4 mps 753 mmHg 52%
    07:00 +8°C° 0 mm 4 mps 753 mmHg 46%
    08:00 +12°C° 0 mm 5 mps 753 mmHg 40%
    09:00 +13°C° 0 mm 5 mps 753 mmHg 37%
    10:00 +13°C° 0 mm 5 mps 753 mmHg 35%
    11:00 +14°C° 0 mm 5 mps 754 mmHg 33%
    12:00 +15°C° 0 mm 5 mps 753 mmHg 33%
    13:00 +15°C° 0 mm 5 mps 753 mmHg 32%
    14:00 +15°C° 0 mm 4 mps 753 mmHg 32%
    15:00 +15°C° 0 mm 4 mps 753 mmHg 35%
    16:00 +14°C° 0 mm 4 mps 753 mmHg 37%
    17:00 +14°C° 0 mm 3 mps 753 mmHg 40%
    18:00 +13°C° 0 mm 3 mps 753 mmHg 44%
    19:00 +12°C° 0 mm 3 mps 753 mmHg 47%
    20:00 +10°C° 0 mm 3 mps 754 mmHg 51%
    21:00 +10°C° 0 mm 3 mps 754 mmHg 52%
    22:00 +9°C° 0 mm 3 mps 754 mmHg 53%
    23:00 +9°C° 0 mm 3 mps 754 mmHg 54%

    Day after tomorrow, 23 April, Tuesday

    Time Temperature Precipitation Wind Pressure Humidity
    00:00 +8°C° 0 mm 2 mps 754 mmHg 54%
    01:00 +8°C° 0 mm 2 mps 755 mmHg 55%
    02:00 +7°C° 0 mm 2 mps 755 mmHg 56%
    03:00 +7°C° 0 mm 2 mps 755 mmHg 57%
    04:00 +7°C° 0 mm 2 mps 755 mmHg 57%
    05:00 +8°C° 0 mm 1 mps 755 mmHg 58%
    06:00 +10°C° 0 mm 1 mps 756 mmHg 53%
    07:00 +12°C° 0 mm 2 mps 756 mmHg 48%
    08:00 +14°C° 0 mm 2 mps 756 mmHg 43%
    09:00 +14°C° 0 mm 2 mps 756 mmHg 40%
    10:00 +15°C° 0 mm 2 mps 757 mmHg 38%
    11:00 +16°C° 0 mm 2 mps 757 mmHg 35%
    12:00 +16°C° 0 mm 2 mps 757 mmHg 35%
    13:00 +16°C° 0 mm 2 mps 756 mmHg 35%
    14:00 +16°C° 0 mm 2 mps 756 mmHg 35%
    15:00 +16°C° 0 mm 2 mps 756 mmHg 37%
    16:00 +16°C° 0 mm 2 mps 756 mmHg 39%
    17:00 +16°C° 0 mm 2 mps 756 mmHg 41%
    18:00 +15°C° 0 mm 2 mps 756 mmHg 44%
    19:00 +14°C° 0 mm 2 mps 756 mmHg 47%
    20:00 +13°C° 0 mm 2 mps 757 mmHg 50%
    21:00 +13°C° 0 mm 2 mps 757 mmHg 51%
    22:00 +13°C° 0 mm 2 mps 757 mmHg 52%
    23:00 +12°C° 0 mm 2 mps 757 mmHg 53%

    24 April, Wednesday

    Time Temperature Precipitation Wind Pressure Humidity
    00:00 +11°C° 0 mm 1 mps 757 mmHg 55%
    01:00 +11°C° 0 mm 1 mps 757 mmHg 57%
    02:00 +10°C° 0 mm 1 mps 757 mmHg 59%
    03:00 +9°C° 0 mm 1 mps 757 mmHg 60%
    04:00 +9°C° 0 mm 1 mps 757 mmHg 61%
    05:00 +8°C° 0 mm 0 mps 757 mmHg 62%
    06:00 +11°C° 0 mm 1 mps 757 mmHg 57%
    07:00 +13°C° 0 mm 1 mps 757 mmHg 52%
    08:00 +15°C° 0 mm 2 mps 757 mmHg 46%
    09:00 +16°C° 0 mm 2 mps 757 mmHg 43%
    10:00 +17°C° 0 mm 2 mps 757 mmHg 40%
    11:00 +18°C° 0 mm 2 mps 757 mmHg 36%
    12:00 +18°C° 0 mm 2 mps 757 mmHg 36%
    13:00 +19°C° 0 mm 2 mps 757 mmHg 35%
    14:00 +19°C° 0 mm 2 mps 756 mmHg 34%
    15:00 +19°C° 0 mm 2 mps 756 mmHg 36%
    16:00 +19°C° 0 mm 2 mps 756 mmHg 39%
    17:00 +19°C° 0 mm 2 mps 756 mmHg 41%
    18:00 +17°C° 0 mm 2 mps 756 mmHg 45%
    19:00 +16°C° 0 mm 1 mps 756 mmHg 48%
    20:00 +15°C° 0 mm 1 mps 756 mmHg 51%
    21:00 +14°C° 0 mm 1 mps 756 mmHg 52%
    22:00 +14°C° 0 mm 2 mps 756 mmHg 53%
    23:00 +14°C° 0 mm 2 mps 756 mmHg 54%

    25 April, Thursday

    Time Temperature Precipitation Wind Pressure Humidity
    00:00 +14°C° 0 mm 2 mps 756 mmHg 55%
    01:00 +14°C° 0 mm 2 mps 756 mmHg 56%
    02:00 +14°C° 0 mm 2 mps 756 mmHg 57%
    03:00 +13°C° 0 mm 2 mps 756 mmHg 61%
    04:00 +12°C° 0 mm 2 mps 756 mmHg 65%
    05:00 +12°C° 0 mm 2 mps 756 mmHg 68%
    06:00 +14°C° 0 mm 2 mps 756 mmHg 64%
    07:00 +16°C° 0 mm 3 mps 756 mmHg 59%
    08:00 +18°C° 0 mm 3 mps 756 mmHg 55%
    09:00 +19°C° 0 mm 3 mps 756 mmHg 50%
    10:00 +20°C° 0 mm 3 mps 756 mmHg 46%
    11:00 +22°C° 0 mm 3 mps 756 mmHg 41%
    12:00 +22°C° 0 mm 3 mps 756 mmHg 40%
    13:00 +24°C° 0 mm 3 mps 755 mmHg 39%
    14:00 +24°C° 0 mm 3 mps 755 mmHg 37%
    15:00 +24°C° 0 mm 2 mps 755 mmHg 39%
    16:00 +23°C° 0 mm 2 mps 755 mmHg 41%
    17:00 +23°C° 0 mm 2 mps 754 mmHg 43%
    18:00 +21°C° 0 mm 2 mps 754 mmHg 47%
    19:00 +19°C° 0 mm 2 mps 754 mmHg 51%
    20:00 +18°C° 0 mm 1 mps 754 mmHg 55%
    21:00 +18°C° 0 mm 1 mps 754 mmHg 56%
    22:00 +16°C° 0 mm 1 mps 754 mmHg 57%
    23:00 +16°C° 0 mm 1 mps 754 mmHg 58%

    26 April, Friday

    Time Temperature Precipitation Wind Pressure Humidity
    00:00 +15°C° 0 mm 1 mps 754 mmHg 59%
    01:00 +15°C° 0 mm 1 mps 753 mmHg 61%
    02:00 +14°C° 0 mm 1 mps 753 mmHg 62%
    03:00 +14°C° 0 mm 1 mps 753 mmHg 63%
    04:00 +14°C° 0 mm 1 mps 753 mmHg 65%
    05:00 +14°C° 0 mm 1 mps 753 mmHg 67%
    06:00 +16°C° 0 mm 1 mps 753 mmHg 61%
    07:00 +18°C° 0 mm 2 mps 753 mmHg 56%
    08:00 +20°C° 0 mm 2 mps 753 mmHg 50%
    09:00 +21°C° 0 mm 2 mps 753 mmHg 46%
    10:00 +23°C° 0 mm 2 mps 753 mmHg 42%
    11:00 +24°C° 0 mm 2 mps 752 mmHg 37%
    12:00 +24°C° 0 mm 2 mps 752 mmHg 38%
    13:00 +24°C° 0 mm 2 mps 752 mmHg 38%
    14:00 +24°C° 0 mm 1 mps 751 mmHg 39%
    15:00 +23°C° 0 mm 1 mps 751 mmHg 42%
    16:00 +23°C° 0 mm 1 mps 751 mmHg 44%
    17:00 +22°C° 0 mm 1 mps 750 mmHg 47%
    18:00 +21°C° 0 mm 1 mps 750 mmHg 49%
    19:00 +21°C° 0 mm 1 mps 750 mmHg 50%
    20:00 +20°C° 0 mm 1 mps 750 mmHg 51%
    21:00 +18°C° 0 mm 2 mps 750 mmHg 54%
    22:00 +18°C° 0 mm 2 mps 750 mmHg 57%
    23:00 +17°C° 0 mm 2 mps 750 mmHg 60%
    Show more